Find Apstar 7

NORAD ID: 38107 Int'l Des: 2012-013 Owner: APT Country: HK operational
HEOCIRCULARGSOGEO

Current View

Loading 3D Globe...

About Apstar 7

Apstar 7 (NORAD 38107) is a satellite launched Mar 31, 2012 by APT of HK. It operates in HEO, CIRCULAR, GSO, GEO orbit with a mass of 5054.00 kg.

Upcoming Passes

Passes for default location (London). Set your location on the main map for personalized predictions.

Altitude History

Loading altitude history...

Two-Line Element Set

1 38107U 12013A 26194.86129557 -.00000107 00000-0 00000+0 0 9999
2 38107 0.0158 82.6437 0002932 41.4714 194.1874 1.00271068 52075
Epoch: Jul 13, 2026 • Age: 9 hours

Current Status

Altitude 35774.9 km
Apogee / Perigee N/A
Velocity 3.08 km/s
Sub-Earth Point 0.02°N, 76.5°E
Launch Date Mar 31, 2012
Age 14.2 years
Type other

Technical Details

Classification Payload
Mass 5054.00 kg
Dry Mass 2500.00 kg
Total Mass 5054.00 kg
Length 5.00 m
Diameter 2.50 m
Span 30.00 m
Shape Box + 2 Pan
Manufacturer THALES
Bus Type Spacebus 4000C2
Phase Status In Orbit
Owner/State APT/HK

Most Searched